Skip Page Navigation
NASA JPL Caltech
NASA Logo - Jet Propulsion Laboratory + View the NASA Portal
+ Near-Earth Object (NEO) Program
Search JPL
JPL Home Earth Solar System Stars & Galaxies Technology
JPL Solar System Dynamics
BODIES ORBITS EPHEMERIDES TOOLS PHYSICAL DATA DISCOVERY FAQ SITE MAP
JPL Small-Body Database Browser
Search: [ help ]  
P/1999 R1 (SOHO = 2007 R5)
Classification: Jupiter-family Comet [NEO]          SPK-ID: 1001474
Ephemeris | Orbit Diagram | Orbital Elements | Close-Approach Data ]

[ hide orbit diagram ]
Orbit Diagram
Note: Make sure you have Java enabled on your browser to see the applet. This applet is provided as a 3D orbit visualization tool. The applet was implemented using 2-body methods, and hence should not be used for determining accurate long-term trajectories (over several years or decades) or planetary encounter circumstances. For accurate long-term ephemerides, please instead use our Horizons system.
Orbit Viewer

Additional Notes: the orbits shown in the applet are color coded. The planets are white lines, and the asteroid/comet is a blue line. The bright white line indicates the portion of the orbit that is above the ecliptic plane, and the darker portion is below the ecliptic plane. Likewise for the asteroid/comet orbit, the light blue indicates the portion above the ecliptic plane, and the dark blue the portion below the ecliptic plane.

Orbit Viewer applet originally written and kindly provided by Osamu Ajiki (AstroArts), and further modified by Ron Baalke (JPL).


Orbital Elements at Epoch 2453089.5 (2004-Mar-25.0) TDB
Reference: JPL 3 (heliocentric ecliptic J2000)
 Element Value Uncertainty (1-sigma)   Units 
e 0.9774091221148735186829 1.2172e-05  
a 2.5237023144173389432865 1.0494e-06 AU
q 0.0570126508034131881941 3.0721e-05 AU
i 13.676228844967560860368 0.025298 deg
node 4.932374956987654 0.099012 deg
peri 43.68972273971999 0.090309 deg
M 48.72061277913492 0.00032546 deg
tp 2452891.317246973185
(2003-Sep-08.81724697)
0.0012698 JED
period 1464.386160598701
4.01
0.00091334
2.501e-06
d
yr
n .2458367947514727 1.5333e-07 deg/d
Q 4.990391978031266 2.075e-06 AU
  Orbit Determination Parameters
   # obs. used (total)      192  
   data-arc span      2930 days (8.02 yr)  
   first obs. used      1999-09-04  
   last obs. used      2007-09-12  
   planetary ephem.      DE405  
   SB-pert. ephem.      SB405-CPV-2  
   condition code      1  
   fit RMS      .34048  
   data source      ORB  
   producer      Nick Mastrodemos  
   solution date      2007-Sep-19 11:18:26  

Additional Information
 Earth MOID = .0765787 AU 
 T_jup = 2.348 
[ show covariance matrix ]

Ephemeris | Orbit Diagram | Orbital Elements | Close-Approach Data ]

no physical parameters available

[ show close-approach data ]
Alternate Designations
 Perihelion 
Year
(est.)
 New-Style 
Desig
Roman
 Numeral 
Year/
 Letter 
 2007.7   P/2007 R5       
 2003.7   P/2003 R5       
 1999.7   P/1999 R1       
Ephemeris | Orbit Diagram | Orbital Elements | Close-Approach Data ]
ABOUT SSD CREDITS/AWARDS PRIVACY/COPYRIGHT GLOSSARY LINKS
FirstGov 2013-May-22 00:56 UT
(server date/time)  
NASA Home Page
Site Manager:   Donald K. Yeomans
Webmaster  Alan B. Chamberlin